Other Public Products
Issued by NWS Grand Forks, ND

Home | Current Version | Previous Version | Text Only | Print | Product List | Glossary On
Versions: 1 2 3 4 5 6 7 8 9 10 11 12 13 14 15 16 17 18 19 20 21 22 23 24 25 26 27 28 29 30 31 32 33 34 35 36 37 38 39 40 41 42 43 44 45 46 47 48 49 50
000
FPUS83 KFGF 231731
OPUFGF
PRAIRIE TO PINES WEATHER ROUNDUP
NATIONAL WEATHER SERVICE EASTERN NORTH DAKOTA/GRAND FORKS ND
1200 PM CDT SUN JUL 23 2017

 **SATELLITE DATA USED TO AUGMENT SKY COVER AT AUTOMATED STATIONS**
 *****  WEATHER ACROSS EASTERN NORTH DAKOTA  *****

CITY           SKY/WX    TMP DP  RH WIND       PRES   REMARKS
GRAND FORKS    PTSUNNY   70  62  76 N8        30.01S
GRAND FORKS AF CLOUDY    70  61  73 N6        30.03R
GRAND CITY NWS NOT AVBL
BUXTON           N/A     69  65  88 NW5         N/A
DEVILS LAKE    FAIR      71  55  56 NW5       30.06S
FARGO          CLOUDY    68  61  78 NW8       30.02R
WAHPETON ARPT  CLOUDY    68  57  68 N7        30.03S
$$

 *****  WEATHER ACROSS CENTRAL AND WESTERN NORTH DAKOTA  *****

CITY           SKY/WX    TMP DP  RH WIND       PRES   REMARKS
JAMESTOWN      FAIR      74  59  59 N12       30.05S
BISMARCK       FAIR      76  55  48 CALM      30.08F
MINOT          FAIR      76  52  43 VRB5      30.05F
MINOT AFB      FAIR      74  52  47 CALM      30.04S
GARRISON         N/A     74  56  53 VRB6      30.06F
WILLISTON      FAIR      82  53  36 SE7       30.03F
DICKINSON      FAIR      81  52  36 VRB3      30.06F
HETTINGER      FAIR      81  48  31 NW5       30.09F
$$

 *****  OTHER OBSERVATIONS NORTHEAST NORTH DAKOTA  *****

CITY           SKY/WX    TMP DP  RH WIND       PRES   REMARKS
WALHALLA       NOT AVBL
LANGDON        FAIR      75  63  64 NE6       30.05F
CAVALIER       FAIR      72  63  73 NE5       30.02S
GRAFTON        FAIR      72  63  73 NE5       30.04S
CANDO          NOT AVBL
FORT TOTTEN      N/A     75  59  57 NW5       29.95S
ROLLA            N/A     70  54  56 CALM      30.07F
RUGBY          NOT AVBL
 ***** THE ABOVE OBSERVATIONS ARE NON NWS ARE NOT QUALITY
        CONTROLLED AND MAY MIS-REPORT RAIN FOR SNOW...
$$

 *****  OTHER OBSERVATIONS SOUTHEAST NORTH DAKOTA *****

CITY           SKY/WX    TMP DP  RH WIND       PRES   REMARKS
COOPERSTOWN    CLOUDY    70  61  73 N6        30.05S
VALLEY CITY    FAIR      73  61  64 N9        30.06S
OAKES          NOT AVBL
GWINNER        PTSUNNY   70  61  73 N9        30.05R
SHEYENNE NWR     N/A     70  60  71 N7        29.95S
BUFFALO          N/A     67  56  67 NE5         N/A
WYNDMERE       NOT AVBL
 ***** THE ABOVE OBSERVATIONS ARE NON NWS ARE NOT QUALITY
       CONTROLLED AND MAY MIS-REPORT RAIN FOR SNOW...
$$

  *****  WEATHER ACROSS NORTHERN MINNESOTA  *****

CITY           SKY/WX    TMP DP  RH WIND       PRES   REMARKS
FLAG ISLAND    FAIR      73  61  64 CALM      30.01S
WARROAD        FAIR      70  63  78 NE9       30.03S
ROSEAU         FAIR      73  63  68 NE8       30.02S
HALLOCK        PTSUNNY   73  63  68 NE5       30.01F
THF RVR FALLS  PTSUNNY   71  60  68 N6        30.02S
HALSTAD          N/A     69  63  80 NW6         N/A
FOSSTON        CLOUDY    70  66  88 NE7       30.02R
BAUDETTE       PTSUNNY   73  59  61 CALM      30.01R
WASKISH        FAIR      73  59  60 NE8       30.01R
CROOKSTON      PTSUNNY   72  63  73 N5        30.01S
$$
  *****  WEATHER ACROSS CENTRAL AND WEST MINNESOTA  *****

CITY           SKY/WX    TMP DP  RH WIND       PRES   REMARKS
BEMIDJI        CLOUDY    66  58  75 NE7       30.01S
PARK RAPIDS    CLOUDY    70  58  65 N8        29.99R
WADENA         CLOUDY    70  57  64 NW7       30.00R
DETROIT LAKES  CLOUDY    68  59  73 N3        30.02S
MOORHEAD       PTSUNNY   68  61  77 N9        30.02F
FERGUS FALLS   CLOUDY    66  57  72 N9        30.01S
ELBOW LAKE     CLOUDY    66  60  81 W12       30.02S
MORRIS MN      FAIR      72  57  60 NW14      30.00S
STAPLES        CLOUDY    70  57  64 N7        29.99R
WHEATON        CLOUDY    66  57  72 NW9       30.04S
$$
  *****  WEATHER ELSEWHERE ACROSS MINNESOTA  *****

CITY           SKY/WX    TMP DP  RH WIND       PRES   REMARKS
DULUTH         CLOUDY    62  58  86 NE9       29.97R
INTRNTL FALLS  FAIR      73  54  51 E6        29.99S
ELY            CLOUDY    66  55  68 E7        29.98S
CLOQUET        PTSUNNY   66  55  68 NW7       29.97R
BRAINERD       CLOUDY    67  58  72 N8        29.99R
HIBBING        CLOUDY    64  58  80 NE9       29.98R
ALEXANDRIA     PTSUNNY   69  58  67 NW10      30.01R
SAINT CLOUD    CLOUDY    70  60  70 N13       29.96R
MINNEAPOLIS    CLOUDY    72  58  61 N10       29.93R
$$

  *****  WEATHER ACROSS SOUTH DAKOTA  *****

CITY           SKY/WX    TMP DP  RH WIND       PRES   REMARKS
SIOUX FALLS    FAIR      78  62  57 N10       30.02R
BROOKINGS      FAIR      73  58  59 N15G22    30.03S
WATERTOWN      FAIR      72  59  63 N17       30.03R
HURON          MOSUNNY   79  64  61 SE8       29.85F
SISSETON         N/A     68  60  75 N14       30.03R
ABERDEEN       FAIR      75  59  57 N10       30.05S
MITCHELL       FAIR      77  60  55 N15       30.05S
PIERRE         FAIR      81  51  35 NE3       30.05S
MOBRIDGE       FAIR      78  59  51 N5        30.05S
RAPID CITY     FAIR      82  44  26 SE9       30.12S
$$

  *****  SOME WEATHER IN NEARBY STATES *****

CITY           SKY/WX    TMP DP  RH WIND       PRES   REMARKS
GLASGOW MT     FAIR      82  46  28 SE9       29.98F
GREAT FALLS MT FAIR      84  40  21 SE8       30.02F
CHEYENNE WY    FAIR      84  48  28 CALM      30.26F
SCOTTSBLUFF NE FAIR      84  55  36 E7        30.13S
OMAHA NE       FAIR      88  67  49 VRB7      29.96S HX  91
DES MOINES IA  FAIR      87  59  38 NW14      29.91S
DAVENPORT IA   FAIR      85  71  63 W13       29.87S HX  90
CHICAGO IL     FAIR      86  64  47 W13G18    29.80S
EAU CLAIRE WI  FAIR      75  60  59 NW8       29.88R
LA CROSSE WI   FAIR      81  64  56 NW14      29.85R
$$

  *****  SOME NATIONAL WEATHER *****

CITY           SKY/WX    TMP DP  RH WIND       PRES   REMARKS
LA GUARDIA NY  LGT RAIN  76  68  76 E9        29.83R
RALEIGH NC     PTSUNNY   95  69  42 W9        29.88F HX 100
ATLANTA GA     PTSUNNY   88  73  61 NW8       29.97F HX  95
NEW ORLEANS LA LGT RAIN  77  74  90 SW9       30.02S
OKLAHOMA CITY  FAIR      90  71  53 E8        29.93F HX  96
ALBUQUERQUE NM PTSUNNY   82  52  35 E13       30.20S
SALT LAKE CITY FAIR      87  46  24 S6        30.07F
LOS ANGELES CA FAIR      75  66  73 SW7       29.90S
BOISE ID       FAIR      83  43  24 CALM      30.02F
SEATTLE WA     CLOUDY    66  55  67 N8        30.11S
$$

*** WEATHER ACROSS MANITOBA...SASKATCHEWAN AND ONTARIO ***
                ***ONTARIO***

CITY           SKY/WX    TMP DP  RH WIND       PRES   REMARKS
GERALDTON      MOSUNNY   72  48  43 E7        29.98S
THUNDER BAY    MOSUNNY   70  55  60 E16G22    29.95R
SIOUX LOOKOUT  MOSUNNY   75  57  53 W6        30.00S
TORONTO        PTSUNNY   73  66  78 E12       29.79S
BIG TROUT LK   SUNNY     70  45  40 S5        30.00S
PICKLE LAKE    SUNNY     73  43  33 VRB6      30.00S
DRYDEN         SUNNY     73  46  38 NE8       30.01R
KENORA         MOSUNNY   72  57  60 N7        30.03R
$$
                *** MANITOBA***

CITY           SKY/WX    TMP DP  RH WIND       PRES   REMARKS
BRANDON        SUNNY     73  55  53 SW8       30.05S
DAUPHIN        MOSUNNY   75  59  57 SW8       30.00F
ISLAND LAKE    PTSUNNY   77  50  38 VRB2      29.94F
PILOT MOUND      N/A     70  55  60 NW5         N/A
THE PAS        PTSUNNY   75  54  46 SW9G17    29.90F
THOMPSON       CLOUDY    73  52  46 S6        29.85F
WINNIPEG       MOSUNNY   73  59  60 VRB2      30.02S
LYNN LAKE      CLOUDY    77  59  53 W14G21    29.78F
CHURCHILL      PTSUNNY   79  54  41 SW12G18   29.70F
GILLAM         CLOUDY    79  46  31 SW12G18   29.84F
$$
                ***SASKATCHEWAN***

CITY           SKY/WX    TMP DP  RH WIND       PRES   REMARKS
ESTEVAN        MOSUNNY   75  57  53 S6        30.03F
KINDERSLEY     MOSUNNY   79  57  47 VRB5      29.89F
LLOYDMINSTER   PTSUNNY   72  59  64 NE6       29.89F
PRINCE ALBERT  PTSUNNY   73  61  64 SW7       29.89F
REGINA         MOSUNNY   81  52  36 S10G17    29.97F
YORKTON        SUNNY     73  59  60 SW8       29.99F



USA.gov is the U.S. government's official web portal to all federal, state and local government web resources and services.